Miscellaneous Local Product
Issued by NWS Hastings, NE

Home | Current Version | Previous Version | Graphics & Text | Print | Product List | Glossary On
Versions: 1 2 3 4 5 6 7 8 9 10 11 12 13 14 15 16 17 18 19 20 21 22 23 24 25 26 27 28 29 30 31 32 33 34 35 36 37 38 39 40 41 42 43 44 45 46 47 48 49 50
000
AXUS43 KGID 301502
MISGRI

GID CWA HOURLY WEATHER ROUNDUP
NATIONAL WEATHER SERVICE HASTINGS NE
1000 AM CDT SUN AUG 30 2015

NOTE: "FAIR" INDICATES FEW OR NO CLOUDS BELOW 12,000 FEET WITH NO
SIGNIFICANT WEATHER AND/OR OBSTRUCTIONS TO VISIBILITY.

...SOUTH CENTRAL NEBRASKA...

CITY           SKY/WX    TMP DP  RH WIND       PRES   REMARKS
GRAND ISLAND   PTSUNNY   66  62  87 S9        30.05S
HASTINGS       CLOUDY    63  62  97 S7        30.05S FOG
KEARNEY        SUNNY     64  61  88 SW6       30.04S
ORD            SUNNY     67  61  81 S7        30.00F
YORK           FOG       63  63 100 S7        30.06S VSB 3/4
AURORA         CLOUDY    64  64 100 S8        30.05S FOG
LEXINGTON      SUNNY     66  62  87 SE6       30.04S
HOLDREGE       SUNNY     65  62  87 SW5       30.05S
HEBRON         CLOUDY    61  61 100 S5        30.07F FOG

...NEBRASKA PANHANDLE...

CITY           SKY/WX    TMP DP  RH WIND       PRES   REMARKS
CHADRON        PTSUNNY   79  47  32 S7        29.89S
ALLIANCE       MOSUNNY   75  46  35 S17       29.98F
SCOTTSBLUFF    SUNNY     70  47  43 SE9       29.98F
SIDNEY         SUNNY     74  46  36 S16       30.04S

...WESTERN AND NORTH CENTRAL NEBRASKA...

CITY           SKY/WX    TMP DP  RH WIND       PRES   REMARKS
VALENTINE      SUNNY     76  52  43 SW13      29.94S
AINSWORTH      SUNNY     71  56  58 S10       29.97S
ONEILL         SUNNY     71  64  80 S8        29.98F
BROKEN BOW     SUNNY     69  63  81 SE5       30.02S
IMPERIAL       SUNNY     74  49  41 S14       30.03F
NORTH PLATTE   SUNNY     70  54  56 S6        30.01F
MCCOOK         SUNNY     69  54  58 CALM      30.03F

...EASTERN NEBRASKA...

CITY           SKY/WX    TMP DP  RH WIND       PRES   REMARKS
NORFOLK        CLOUDY    64  63  96 S8        30.02S
TEKAMAH        CLOUDY    63  62  97 S6        30.05R FOG
COLUMBUS       CLOUDY    64  59  82 S7        30.04S
ALBION         CLOUDY    66  62  89 S8        30.02F
OMAHA EPPLEY   CLOUDY    65  62  90 S12       30.06S FOG
OFFUTT AFB     CLOUDY    65  64  97 S7        30.05S
MILLARD        CLOUDY    64  62  91 CALM      30.06S
LINCOLN        CLOUDY    64  62  93 S8        30.07R FOG
NEBRASKA CITY  CLOUDY    62  62  99 CALM      30.08R
BEATRICE       CLOUDY    62  62  99 SW3       30.07S FOG
FALLS CITY     FOG       63  63 100 CALM      30.07R VSB 1/2

...NORTHERN KANSAS...

CITY           SKY/WX    TMP DP  RH WIND       PRES   REMARKS
GOODLAND       SUNNY     72  50  45 S13       30.09S
HILL CITY      SUNNY     65  59  81 S3        30.05F
NORTON         SUNNY     68  55  64 CALM      30.04F
PHILLIPSBURG   FOG       63  63 100 CALM      30.06S VSB 1/2
SMITH CENTER   PTSUNNY   63  63 100 S6        30.07R
HAYS           SUNNY     66  55  68 SW5       30.06F
RUSSELL        FOG       61  61 100 S7        30.06S VSB 3/4
CONCORDIA      CLOUDY    61  61 100 CALM      30.08S FOG
SALINA         CLOUDY    66  63  90 CALM      30.08R
TOPEKA         FOG       68  68 100 CALM      30.06S VSB 1/2



USA.gov is the U.S. government's official web portal to all federal, state and local government web resources and services.